Location: Ferma
(41.9500°N, 44.5167°E)
Time: 13:33:14
(UTC+00:00)

Cosmos 2322 Rocket - Pass Details

Date: 24 October 2021
Orbit: 832 x 852 km, 71.0° (Epoch: 07 December)

Event Time Altitude Azimuth Distance (km) Brightness Sun altitude
Exits shadow 23:39:53 19° 78° (ENE) 1,899 4.5 -41.9°
Drops below altitude 10° 23:42:24 10° 102° (ESE) 2,467 5.1 -41.5°
Sets 23:45:24 0° 117° (ESE) 3,402 5.8 -41.0°
